Albuquerque, NM

6:42 AM MDT on April 24, 2018 (GMT -0600)
Albuquerque International Sunport

Weather History for KABQ - February, 2014

Change the Weather History Date:

Sunday, February 16, 2014

  Actual Average Record
Temperature  
Mean Temperature 55 °F 42 °F  
Max Temperature 70 °F 53 °F 71 °F (1904)
Min Temperature 39 °F 31 °F -7 °F (1895)
Degree Days  
Heating Degree Days 10 23  
Month to date heating degree days 352 400  
Since 1 July heating degree days 2948 3042  
Cooling Degree Days 0 0  
Month to date cooling degree days 0 0  
Year to date cooling degree days 0 0  
Growing Degree Days 4 (Base 50)    
Moisture  
Dew Point 14 °F    
Average Humidity 19    
Maximum Humidity 29    
Minimum Humidity 9    
Precipitation  
Precipitation 0.00 in 0.01 in 0.30 in (1979)
Month to date precipitation 0.18 0.26  
Year to date precipitation 0.18 0.64  
Snow  
Snow 0.00 in - - ()
Month to date snowfall 1.7  
Since 1 July snowfall 6.6  
Snow Depth 0.00 in    
Sea Level Pressure  
Sea Level Pressure 29.95 in    
Wind  
Wind Speed 8 mph (SSW)    
Max Wind Speed 28 mph    
Max Gust Speed 37 mph    
Visibility 10 miles    
Events      
T = Trace of Precipitation, MM = Missing Value Source: NWS Daily Summary

Daily Weather History Graph

Daily Weather History Graph

Search for Another Location

Airport or City:

Astronomy

Feb. 16, 2014 Rise Set
Actual Time 6:51 AM MST 5:50 PM MST
Civil Twilight 6:25 AM MST 6:16 PM MST
Nautical Twilight 5:55 AM MST 6:45 PM MST
Astronomical Twilight 5:26 AM MST 7:15 PM MST
Moon 7:43 PM MST (2/16) 7:27 AM MST (2/16)
Length of Visible Light 11h 50m
Length of Day
10h 58m
Full, 97% of the Moon is Illuminated
Feb 16
Full
Feb 22
Last Quarter
Mar 1
New
Mar 8
First Quarter
Mar 16
Full

Hourly Weather History & Observations

Time (MST) Temp. Windchill Dew Point Humidity Pressure Visibility Wind Dir Wind Speed Gust Speed Precip Events Conditions
12:52 AM 46.9 °F - 12.9 °F 25% 29.98 in 10.0 mi SE 6.9 mph - N/A   Overcast
1:52 AM 46.9 °F - 12.9 °F 25% 29.96 in 10.0 mi Calm Calm - N/A   Overcast
2:52 AM 50.0 °F - 10.9 °F 21% 29.94 in 10.0 mi Calm Calm - N/A   Overcast
3:52 AM 44.1 °F 40.1 °F 14.0 °F 30% 29.96 in 10.0 mi ESE 6.9 mph - N/A   Overcast
4:52 AM 44.1 °F 40.8 °F 12.9 °F 28% 29.96 in 10.0 mi SSE 5.8 mph - N/A   Mostly Cloudy
5:52 AM 46.0 °F 44.8 °F 10.9 °F 24% 29.98 in 10.0 mi SSE 3.5 mph - N/A   Scattered Clouds
6:52 AM 43.0 °F 39.5 °F 12.9 °F 30% 30.01 in 10.0 mi ESE 5.8 mph - N/A   Mostly Cloudy
7:52 AM 48.9 °F - 15.1 °F 26% 30.02 in 10.0 mi SE 3.5 mph - N/A   Mostly Cloudy
8:52 AM 53.1 °F - 12.0 °F 20% 30.02 in 10.0 mi SSW 3.5 mph - N/A   Mostly Cloudy
9:52 AM 55.9 °F - 12.9 °F 18% 30.01 in 10.0 mi Variable 4.6 mph - N/A   Mostly Cloudy
10:52 AM 57.9 °F - 14.0 °F 18% 30.00 in 10.0 mi SW 3.5 mph - N/A   Mostly Cloudy
11:52 AM 64.0 °F - 14.0 °F 14% 29.96 in 10.0 mi WSW 13.8 mph - N/A   Mostly Cloudy
12:52 PM 66.0 °F - 12.0 °F 12% 29.92 in 10.0 mi West 9.2 mph 19.6 mph N/A   Mostly Cloudy
1:52 PM 68.0 °F - 12.0 °F 11% 29.87 in 10.0 mi NW 11.5 mph 19.6 mph N/A   Overcast
2:52 PM 68.0 °F - 9.0 °F 10% 29.84 in 10.0 mi West 20.7 mph 28.8 mph N/A   Mostly Cloudy
3:52 PM 69.1 °F - 10.0 °F 10% 29.84 in 10.0 mi WSW 23.0 mph 31.1 mph N/A   Mostly Cloudy
4:52 PM 68.0 °F - 15.1 °F 13% 29.87 in 10.0 mi West 21.9 mph 32.2 mph N/A   Mostly Cloudy
5:52 PM 66.0 °F - 15.1 °F 14% 29.88 in 10.0 mi West 13.8 mph 26.5 mph N/A   Mostly Cloudy
6:52 PM 64.0 °F - 18.0 °F 17% 29.91 in 10.0 mi West 13.8 mph - N/A   Mostly Cloudy
7:52 PM 59.0 °F - 17.1 °F 20% 29.95 in 10.0 mi WSW 8.1 mph - N/A   Mostly Cloudy
8:52 PM 57.9 °F - 18.0 °F 21% 29.96 in 10.0 mi WSW 5.8 mph - N/A   Mostly Cloudy
9:52 PM 48.9 °F - 18.0 °F 29% 30.01 in 10.0 mi SE 4.6 mph - N/A   Mostly Cloudy
10:52 PM 48.9 °F - 18.0 °F 29% 30.02 in 10.0 mi Calm Calm - N/A   Mostly Cloudy
11:52 PM 46.0 °F 43.1 °F 18.0 °F 33% 30.03 in 10.0 mi SE 5.8 mph - N/A   Mostly Cloudy